Elkins, WV

6:22 PM EDT on August 29, 2016 (GMT -0400)
Elkins-Randolph County

Weather History for KEKN - January, 2014

Change the Weather History Date:

Thursday, January 9, 2014

  Actual Average Record
Temperature  
Mean Temperature 29 °F 29 °F  
Max Temperature 41 °F 39 °F 69 °F (1930)
Min Temperature 16 °F 19 °F -8 °F (1996)
Degree Days  
Heating Degree Days 36 36  
Month to date heating degree days 394 324  
Since 1 July heating degree days 2604 2615  
Cooling Degree Days 0 0  
Month to date cooling degree days 0 0  
Year to date cooling degree days 0 0  
Moisture  
Dew Point 19 °F    
Average Humidity 65    
Maximum Humidity 92    
Minimum Humidity 38    
Precipitation  
Precipitation 0.00 in 0.10 in 1.11 in (1957)
Month to date precipitation 0.45 0.91  
Year to date precipitation 0.45 0.91  
Snow  
Snow 0.00 in - - ()
Month to date snowfall 5.4  
Since 1 September snowfall 21.3  
Snow Depth 1.00 in    
Sea Level Pressure  
Sea Level Pressure 30.51 in    
Wind  
Wind Speed 1 mph (SSE)    
Max Wind Speed 8 mph    
Max Gust Speed 12 mph    
Visibility 10 miles    
Events      
T = Trace of Precipitation, MM = Missing Value Source: NWS Daily Summary

Daily Weather History Graph

Daily Weather History Graph

Search for Another Location

Airport or City:

Trip Planner

Search our weather history database for the weather conditions in past years. The results will help you decide how hot, cold, wet, or windy it might be!

Date:

Astronomy

Jan. 09, 2014 Rise Set
Actual Time 7:37 AM EST 5:15 PM EST
Civil Twilight 7:08 AM EST 5:44 PM EST
Nautical Twilight 6:35 AM EST 6:18 PM EST
Astronomical Twilight 6:03 AM EST 6:50 PM EST
Moon 12:40 PM EST (1/9) 1:45 AM EST (1/9)
Length of Visible Light 10h 36m
Length of Day
9h 37m
Waxing Gibbous, 66% of the Moon is Illuminated
Jan 9
Waxing Gibbous
Jan 15
Full
Jan 24
Last Quarter
Jan 30
New
Feb 6
First Quarter

Hourly Weather History & Observations

Time (EST) Temp. Windchill Dew Point Humidity Pressure Visibility Wind Dir Wind Speed Gust Speed Precip Events Conditions
12:51 AM 25.0 °F - 17.1 °F 72% 30.50 in 10.0 mi Calm Calm - N/A   Partly Cloudy
1:51 AM 19.9 °F - 15.1 °F 81% 30.51 in 10.0 mi Calm Calm - N/A   Clear
2:51 AM 18.0 °F - 12.9 °F 81% 30.53 in 10.0 mi Calm Calm - N/A   Clear
3:51 AM 19.0 °F - 15.1 °F 85% 30.53 in 10.0 mi Calm Calm - N/A   Overcast
4:51 AM 19.0 °F - 15.1 °F 85% 30.54 in 10.0 mi Calm Calm - N/A   Overcast
5:51 AM 17.1 °F - 12.9 °F 84% 30.54 in 10.0 mi Calm Calm - N/A   Partly Cloudy
6:51 AM 19.9 °F - 17.1 °F 89% 30.55 in 10.0 mi Calm Calm - N/A   Overcast
7:51 AM 21.9 °F - 19.0 °F 89% 30.57 in 10.0 mi Calm Calm - N/A   Overcast
8:51 AM 23.0 °F - 19.0 °F 85% 30.59 in 10.0 mi Calm Calm - N/A   Overcast
9:51 AM 26.1 °F - 19.0 °F 75% 30.59 in 10.0 mi Calm Calm - N/A   Overcast
10:51 AM 30.0 °F - 19.9 °F 66% 30.57 in 10.0 mi Calm Calm - N/A   Scattered Clouds
11:51 AM 30.9 °F - 19.0 °F 61% 30.55 in 10.0 mi Calm Calm - N/A   Overcast
12:51 PM 33.1 °F - 19.9 °F 59% 30.51 in 10.0 mi Calm Calm - N/A   Overcast
1:51 PM 35.1 °F - 19.0 °F 52% 30.48 in 10.0 mi Calm Calm - N/A   Overcast
2:51 PM 39.0 °F - 19.9 °F 46% 30.47 in 10.0 mi Calm Calm - N/A   Overcast
3:51 PM 39.9 °F - 21.9 °F 49% 30.46 in 10.0 mi Calm Calm - N/A   Clear
4:51 PM 36.0 °F 33.3 °F 24.1 °F 62% 30.46 in 10.0 mi SE 3.5 mph - N/A   Partly Cloudy
6:51 PM 32.0 °F - 26.1 °F 79% 30.45 in 10.0 mi Calm Calm - N/A   Mostly Cloudy
7:51 PM 33.1 °F - 27.0 °F 78% 30.47 in 10.0 mi Calm Calm - N/A   Overcast
8:51 PM 39.0 °F 35.7 °F 19.9 °F 46% 30.44 in 10.0 mi SSE 4.6 mph - N/A   Overcast
9:51 PM 41.0 °F 36.4 °F 17.1 °F 38% 30.44 in 10.0 mi South 6.9 mph - N/A   Overcast
10:51 PM 39.9 °F 36.7 °F 17.1 °F 40% 30.44 in 10.0 mi South 4.6 mph - N/A   Overcast
11:51 PM 39.0 °F 34.8 °F 18.0 °F 43% 30.41 in 10.0 mi South 5.8 mph - N/A   Overcast